Simultaneous Nadir Overpasses (SNOs) Predictions

Prediction of SNOs between GOES-16 and NPP Satellite Orbit:

Table of predicted SNOs for the next 14.0 days since TLE Epoch: 7/8/2023
Index Date Time (GOES-16) GOES-16 Lat,Lon NPP Lat,Lon Distance(km) Time Diff (sec)
1 07/08/2023 06:24:53 -0.01, -75.20 -0.06, -74.90 33.85 80
2 07/10/2023 18:28:06 0.01, -75.22 -0.09, -75.68 53.03 80
3 07/11/2023 18:12:02 0.00, -75.23 0.92, -71.15 464.12 80
4 07/13/2023 06:33:50 0.00, -75.24 0.25, -76.43 135.38 80
5 07/14/2023 06:12:25 0.00, -75.25 -0.76, -71.90 382.00 80
6 07/15/2023 18:34:22 -0.01, -75.27 -0.44, -77.21 220.80 80
7 07/16/2023 18:18:17 -0.01, -75.29 0.57, -72.68 296.95 80
8 07/18/2023 06:40:06 0.02, -75.31 0.59, -77.96 301.44 80
9 07/19/2023 06:18:41 0.02, -75.33 -0.43, -73.43 216.68 80
10 07/20/2023 18:40:37 -0.02, -75.36 -0.77, -78.74 384.93 80
11 07/21/2023 18:24:33 -0.02, -75.38 0.25, -74.21 133.72 80
